Location: Beadle
(51.4667°N, 109.0000°W)
Time: 02:12:40
(UTC+00:00)

SO-50 - Visible Passes

Search period start: 02 July 2022 00:00
Search period end: 12 July 2022 00:00
Orbit: 586 x 697 km, 64.6° (Epoch: 01 July)

Date Brightness Start Highest point End Pass type
(mag) Time Alt. Az. Time Alt. Az. Time Alt. Az.
02 Jul ? 07:15:40 27° S 07:17:44 41° ESE 07:22:18 10° NE visible
02 Jul ? 08:53:36 10° WSW 08:58:11 44° NW 09:02:54 10° NE visible
03 Jul ? 06:01:28 14° ESE 06:02:26 15° ESE 06:05:08 10° ENE visible
03 Jul ? 07:39:01 22° SW 07:42:05 81° SE 07:47:00 10° NE visible
03 Jul ? 09:18:49 10° W 09:23:03 29° NNW 09:27:22 10° NNE visible
04 Jul ? 06:24:43 23° SSE 06:26:27 30° ESE 06:30:40 10° ENE visible
04 Jul ? 08:02:15 12° WSW 08:06:39 57° NW 08:11:30 10° NE visible
04 Jul ? 09:44:17 10° WNW 09:48:04 22° NNW 09:51:55 10° NNE visible
05 Jul ? 05:10:47 10° ESE 05:11:18 10° ESE 05:11:49 10° E visible
05 Jul ? 06:47:53 23° SSW 06:50:42 59° SE 06:55:31 10° NE visible
05 Jul ? 08:27:01 10° W 08:31:26 35° NNW 08:35:57 10° NE visible
05 Jul ? 10:09:47 10° NW 10:13:12 19° N 10:16:40 10° NE visible
06 Jul ? 05:33:23 17° SE 05:35:14 22° ESE 05:38:54 10° ENE visible
06 Jul ? 07:10:55 13° SW 07:15:11 75° NW 07:20:06 10° NE visible
06 Jul ? 08:52:23 10° WNW 08:56:23 25° NNW 09:00:27 10° NNE visible
07 Jul ? 05:56:16 18° S 05:59:22 43° ESE 06:03:59 10° NE visible
07 Jul ? 07:35:16 10° WSW 07:39:51 44° NW 07:44:34 10° NE visible
07 Jul ? 09:17:53 10° WNW 09:21:28 20° NNW 09:25:05 10° NE visible
08 Jul ? 04:41:26 10° SE 04:44:03 15° ESE 04:46:51 10° ENE visible
08 Jul ? 06:18:59 10° SW 06:23:44 83° SE 06:28:39 10° NE visible
08 Jul ? 08:00:30 10° W 08:04:43 29° NNW 08:09:02 10° NNE visible
08 Jul ? 09:43:18 10° NW 09:46:38 18° N 09:50:00 10° NE visible
09 Jul ? 05:03:57 10° S 05:08:06 31° ESE 05:12:21 10° ENE visible
09 Jul ? 06:43:37 10° WSW 06:48:19 56° NW 06:53:10 10° NE visible
09 Jul ? 08:25:58 10° WNW 08:29:45 22° NNW 08:33:34 10° NNE visible
09 Jul ? 10:08:26 10° NW 10:11:50 18° N 10:15:15 10° NE visible
10 Jul ? 05:27:41 10° SSW 05:32:21 61° SE 05:37:11 10° NE visible
10 Jul ? 07:08:41 10° W 07:13:06 35° NNW 07:17:37 10° NE visible
10 Jul ? 08:51:27 10° NW 08:54:53 18° N 08:58:20 10° NE visible
11 Jul ? 04:13:13 10° SSE 04:16:51 22° ESE 04:20:35 10° ENE visible
11 Jul ? 05:52:03 10° SW 05:56:49 73° NW 06:01:44 10° NE visible
11 Jul ? 07:34:03 10° WNW 07:38:03 25° NNW 07:42:06 10° NNE visible
11 Jul ? 09:16:44 10° NW 09:20:04 18° N 09:23:25 10° NE visible
